{"data":{"norad_id":58716,"intl_designator":"2024-002M","name":"STARLINK-31098","alt_names":[],"object_type":"PAYLOAD","status":"ACTIVE","operator":null,"country":"US","launch_date":"2024-01-03","launch_site_code":"AFWTR","launch_vehicle":null,"mission":null,"orbit_class":"UNKNOWN","rcs_meters":null,"size_class":null,"mass_kg":null,"dimensions":null,"purposes":["comms"],"wikipedia_slug":null,"has_3d_model":false,"image_url":null,"decayed_at":null,"tle_current":{"epoch":"2026-09-20T13:58:14.771424Z","epoch_age_seconds":142709,"freshness":"FRESH","line1":"1 58716U 24002M   26263.58211541 -.00000023  00000+0  10470-4 0  9992","line2":"2 58716  53.1593  43.3079 0001406  91.4239 268.6925 15.34388435151874","mean_motion":15.34388435,"eccentricity":0.0001406,"inclination_deg":53.1593,"raan_deg":43.3079,"arg_perigee_deg":91.4239,"mean_anomaly_deg":268.6925,"bstar":1.047e-5,"rev_number":15187,"period_min":93.848465431115,"perigee_km":461.77578706948,"apogee_km":463.69944101095,"semimajor_km":6840.8746140402,"source":"CELESTRAK","updated_at":"2026-09-21T09:00:33.949226Z"}}}